Regional Weather Roundup
Issued by NWS

Home | Current Version | Previous Version | Text Only | Print | Product List | Glossary On
Versions: 1 2 3 4 5 6 7 8 9 10 11 12 13 14 15 16 17 18 19 20 21 22 23 24 25 26 27 28 29 30 31 32 33 34 35 36 37 38 39 40 41 42 43 44 45 46 47 48 49 50
000
ASUS44 KBMX 070010
RWRAL

ALABAMA REGIONAL WEATHER ROUNDUP
NATIONAL WEATHER SERVICE BIRMINGHAM AL
700 PM CDT MON JUL 06 2015

NOTE: "FAIR" INDICATES FEW OR NO CLOUDS BELOW 12,000 FEET
WITH NO SIGNIFICANT WEATHER AND/OR OBSTRUCTIONS TO VISIBILITY.

THE REMARK "TC" DENOTES TEMPERATURE IN DEGREES CELSIUS.

ALZ001>011-014-016>018-020-070100-
NORTH ALABAMA

CITY           SKY/WX    TMP DP  RH WIND       PRES   REMARKS
MUSCLE SHOALS  SUNNY     85  71  63 SW12      30.07F HX  90
6HR MIN TEMP:  84; 6HR MAX TEMP:  89;

HUNTSVILLE     MOSUNNY   81  74  79 SE3       30.07F
6HR MIN TEMP:  80; 6HR MAX TEMP:  89; 6HR PCP:  0.02;

DECATUR        PTSUNNY   83  73  72 S7        30.07F
6HR MIN TEMP:  83; 6HR MAX TEMP:  88;

HALEYVILLE     FAIR      82  74  77 S7        30.12F
6HR MIN TEMP:  82; 6HR MAX TEMP:  86;

GADSDEN        MOSUNNY   91  66  43 SW6       30.09S HX  94
6HR MIN TEMP:  90; 6HR MAX TEMP:  93;

$$

ALZ012-013-022-023-030>036-040>044-070100-
WEST CENTRAL ALABAMA

CITY           SKY/WX    TMP DP  RH WIND       PRES   REMARKS
TUSCALOOSA     SUNNY     85  72  65 S6        30.08F HX  91
6HR MIN TEMP:  83; 6HR MAX TEMP:  87;

$$

ALZ015-024>027-033>036-040>044-070100-
CENTRAL ALABAMA

CITY           SKY/WX    TMP DP  RH WIND       PRES   REMARKS
BIRMINGHAM     MOSUNNY   84  69  60 W8        30.11F
6HR MIN TEMP:  83; 6HR MAX TEMP:  85;

MONTGOMERY     CLEAR     85  72  65 SW3       30.10S HX  91
6HR MIN TEMP:  84; 6HR MAX TEMP:  89;

SHELBY CO ARPT MOSUNNY   82  71  69 SW3       30.11S
6HR MIN TEMP:  81; 6HR MAX TEMP:  84;

MAXWELL AFB    CLEAR     84  73  68 W2        30.09F HX  90
6HR MIN TEMP:  82; 6HR MAX TEMP:  87;

GREENVILLE     FAIR      85  70  60 NW5       30.10F
6HR MIN TEMP:  85; 6HR MAX TEMP:  89;

$$

ALZ019-021-028-029-037-038-045>048-070100-
EAST CENTRAL ALABAMA

CITY           SKY/WX    TMP DP  RH WIND       PRES   REMARKS
ANNISTON       CLEAR     82  69  64 SW6       30.10F
6HR MIN TEMP:  82; 6HR MAX TEMP:  86;

ALEXANDER CITY CLEAR     80  68  68 CALM      30.12F
6HR MIN TEMP:  78; 6HR MAX TEMP:  87;

AUBURN         CLEAR     81  66  61 W5        30.13F
6HR MIN TEMP:  75; 6HR MAX TEMP:  82;

$$

ALZ051>064-070100-
SOUTHWEST ALABAMA

CITY           SKY/WX    TMP DP  RH WIND       PRES   REMARKS
MOBILE         MOSUNNY   84  75  74 S12       30.10F HX  92
6HR MIN TEMP:  84; 6HR MAX TEMP:  90;

BROOKLEY FIELD MOSUNNY   84  75  74 S5        30.11F HX  92
6HR MIN TEMP:  84; 6HR MAX TEMP:  89;

EVERGREEN      SUNNY     85  73  67 CALM      30.10F HX  91
6HR MIN TEMP:  82; 6HR MAX TEMP:  89; 6HR PCP: TRACE;

$$

ALZ049-050-065>069-070100-
SOUTHEAST ALABAMA

CITY           SKY/WX    TMP DP  RH WIND       PRES   REMARKS
DOTHAN         CLEAR     86  69  56 N3        30.14S HX  90
6HR MIN TEMP:  86; 6HR MAX TEMP:  89;

OZARK          CLEAR     85  71  61 NW3       30.10S HX  90
6HR MIN TEMP:  85; 6HR MAX TEMP:  89;

TROY           CLEAR     85  71  63 CALM      30.11F HX  90
6HR MIN TEMP:  85; 6HR MAX TEMP:  89;

EUFAULA        FAIR      85  73  67 CALM      30.09F HX  91
6HR MIN TEMP:  84; 6HR MAX TEMP:  89;

$$


USA.gov is the U.S. government's official web portal to all federal, state and local government web resources and services.